Location: Bothwell
(42.3833°S, 147.0000°E)
Time: 19:09:55
(UTC+11:00)

BEESAT - Pass Details

Date: 25 September 2022
Orbit: 699 x 706 km, 98.5° (Epoch: 25 November)

Event Time Altitude Azimuth Distance (km) Brightness Sun altitude
Exits shadow 20:27:36 22° 340° (NNW) 1,530 ? -25.0°
Maximum altitude 20:30:20 44° 279° (W) 990 ? -25.5°
Drops below altitude 10° 20:34:57 10° 207° (SSW) 2,209 ? -26.2°
Sets 20:37:21 0° 200° (SSW) 3,137 ? -26.6°
